Regional Weather Roundup
Issued by NWS Austin/San Antonio, TX

Home | Current Version | Previous Version | Text Only | Print | Product List | Glossary On
Versions: 1 2 3 4 5 6 7 8 9 10 11 12 13 14 15 16 17 18 19 20 21 22 23 24 25 26 27 28 29 30 31 32 33 34 35 36 37 38 39 40 41 42 43 44 45 46 47 48 49 50
000
ASUS44 KEWX 280502
RWREWX
SOUTH TEXAS REGIONAL WEATHER ROUNDUP
NATIONAL WEATHER SERVICE AUSTIN/SAN ANTONIO TX
1200 AM CDT FRI APR 28 2017

NOTE: "FAIR" INDICATED FEW OR NO CLOUDS BELOW 12,000 FEET WITH NO
SIGNIFICANT WEATHER AND/OR OBSTRUCTIONS TO VISIBILITY.

* - THESE STATIONS ARE NOT NWS OR FAA STATIONS...AND ARE NOT SUBJECT
    TO NWS AND FAA QUALITY CONTROL.

TXZ171-172-183>190-280600-
TEXAS HILL COUNTRY AND EDWARDS PLATEAU

CITY           SKY/WX    TMP DP  RH WIND       PRES   REMARKS
JUNCTION       PTCLDY    75  60  59 S13G21    29.59R
*LLANO         CLOUDY    68  57  68 CALM      29.62S
BURNET         CLOUDY    70  59  68 SE9       29.63S
*HORSESHOE BAY CLOUDY    72  61  68 E3        29.61R
*KERRVILLE     PTCLDY    72  65  80 SE9       29.64S
*FREDERICKSBRG CLOUDY    71  58  63 S12       29.63S
*ROCKSPRINGS   PTCLDY    72  63  73 S18G28    29.65S
*BOERNE STAGE  CLEAR     68  61  77 S12G17    29.66S
*CASTROVILLE   MOCLDY    71  64  77 SE13      29.66R
HONDO          PTCLDY    72  66  81 SE15G24   29.63R
*UVALDE        PTCLDY    73  65  78 SE7       29.61S
DEL RIO        CLOUDY    77  62  59 SE9       29.55S
LAUGHLIN AFB   MOCLDY    73  62  68 SE8       29.56S
CARRIZO SPRGS  CLEAR     75  68  78 SE12      29.58S
*EAGLE PASS    NOT AVBL
$$

TXZ173-191>194-202-209-217>225-228-280600-
CENTRAL AND SOUTH CENTRAL TEXAS

CITY           SKY/WX    TMP DP  RH WIND       PRES   REMARKS
GEORGETOWN     PTCLDY    70  61  73 S12G18    29.62S
AUSTIN/BERGSTM MOCLDY    71  65  81 S18G29    29.63S
AUSTIN/MABRY   MOCLDY    70  64  81 SE14G25   29.64R
*AUSTIN/EXEC   CLOUDY    68  64  88 S16G24    29.64S
*LAGO VISTA    PTCLDY    70  63  78 S9G20     29.63S
SAN MARCOS     CLOUDY    70  63  78 S16G22    29.66S
NEW BRAUNFELS  CLOUDY    70  64  81 S14       29.65R
RANDOLPH AFB   PTCLDY    68  67  98 S13       29.65R
PT SAN ANTONIO MOCLDY    70  65  83 SE17      29.63R
SAN ANTONIO    MOCLDY    70  64  81 SE16      29.65S
STINSON FIELD  PTCLDY    70  64  81 SE10      29.63R
*LA GRANGE     CLOUDY    73  67  83 S10       29.64S
*GIDDINGS      CLOUDY    70  63  78 S10G20    29.66S
*GONZALES      CLOUDY    72  68  89 S8        29.65F
$$

TXZ163>164-176>182-195>201-210>213-226-227-235-280600-
SOUTHEAST TEXAS

CITY           SKY/WX    TMP DP  RH WIND       PRES   REMARKS
COLLEGE STN    CLOUDY    71  60  68 S13       29.65S
*BRYAN         CLOUDY    67  59  75 S12       29.66F
*CALDWELL      NOT AVBL
*CROCKETT      CLOUDY    64  55  72 SE7       29.70S
*BRENHAM       CLOUDY    71  65  80 S10G18    29.67S
HUNTSVILLE     MOCLDY    70  57  63 S9G18     29.66F
CONROE         CLOUDY    68  62  81 SE9       29.68F
HOUSTON BUSH   CLOUDY    73  66  78 S7        29.68S
HOUSTON HOBBY  CLOUDY    73  68  84 S9        29.67F
*HOUSTON SW AP CLOUDY    73  68  85 S7        29.69S
PEARLAND       CLOUDY    76  69  79 S8        29.69F
HOUSTON HOOKS  CLOUDY    72  65  78 VRB5      29.68S
ELLINGTON FLD  CLOUDY    75  64  69 SE9       29.69F
SUGAR LAND     CLOUDY    73  67  81 S7        29.68S
*HOUSTON EXEC  CLOUDY    72  66  83 S7        29.69F
*CLEVELAND MUN CLOUDY    68  62  81 S6        29.69F
*WHARTON       CLOUDY    71  66  82 SE7       29.68F
*COLUMBUS      CLOUDY    70  65  84 SE7       29.67F
*EAGLE LAKE    CLOUDY    71  67  87 S7        29.67F
$$

TXZ214>216-236>238-280600-
THE UPPER TEXAS COAST

CITY           SKY/WX    TMP DP  RH WIND       PRES   REMARKS
*ORANGE        CLOUDY    74  69  83 S8        29.71F
PORT ARTHUR    CLOUDY    75  68  78 SE15      29.69F
GALVESTON      CLOUDY    77  73  87 SE13      29.69S
ANGLETON       CLOUDY    77  71  82 SE12      29.67F
*BAY CITY      CLOUDY    75  71  86 SE7       29.67S
PALACIOS       CLOUDY    76  69  79 S15       29.66S
$$

TXZ229>234-239>247-280600-
TEXAS COASTAL BEND AND RIO GRANDE PLAINS

CITY           SKY/WX    TMP DP  RH WIND       PRES   REMARKS
VICTORIA       CLOUDY    75  69  81 S10       29.66F
*BEEVILLE      CLOUDY    75  70  85 SE9G16    29.64S
ROCKPORT       CLOUDY    77  70  79 SE9G20    29.63F
*PORT ARANSAS  CLOUDY    75  72  88 SE9       29.63F
*PORT LAVACA   CLOUDY    75  72  91 CALM      29.66S
*INGLESIDE     CLOUDY    77  72  85 E5        29.63F
CORPUS CHRISTI CLOUDY    76  71  85 SE16      29.63F
CORPUS NAS     CLOUDY    78  73  84 SE14      29.63F
*ROBSTOWN      CLOUDY    77  72  83 SE12      29.63F
ALICE          CLOUDY    74  70  87 SE12      29.62F
KINGSVILLE NAS CLOUDY    77  73  87 SE7       29.63F
COTULLA        CLEAR     74  66  76 SE14      29.61R
*FAITH RANCH   PTCLDY    79  68  69 SE12G18   29.58R
LAREDO         CLEAR     76  69  79 SE13      29.61S
$$

TXZ248>255-280600-
DEEP SOUTH TEXAS

CITY           SKY/WX    TMP DP  RH WIND       PRES   REMARKS
BROWNSVILLE    MOCLDY    77  71  82 SE9       29.64F
PORT ISABEL    MOCLDY    77  72  84 SE9       29.63F
*SOUTH PADRE   NOT AVBL
HARLINGEN      MOCLDY    76  72  87 SE10      29.62F
*HEBBRONVILLE  PTCLDY    71  67  89 SE9       29.63F
MCALLEN        CLOUDY    80  71  74 SE12      29.62F
*WESLACO       PTCLDY    77  70  78 S8        29.62F
FALFURRIAS     CLOUDY    76  72  85 E9        29.62F
EDINBURG       MOCLDY    76  71  82 SE6       29.62S
*ZAPATA        MOCLDY    77  68  74 SE6       29.60F
$$

TXZ213>215-236>238-242>244-246-247-251-254-255-280600-
CMAN STATIONS

STATION/POSITION TIME  TEMP    WIND        PRES    WAVE
                       AIR SEA DIR/SP/G            HT/PER
                 (UTC) (F)     (DEG/KT/KT) (MB)    (FT/S)
SABINE PASS      0430   75 77  140/ 13/ 18 1007.1
SEA RIM ST PARK  0400   74     140/  8/ 11 1006.4
NORTH JETTY/GLS  0430      75  140/ 13/ 16 1005.0
EAGLE POINT      0430   74 75  180/ 12/ 15 1005.1
MORGANS POINT    0430   74 75  140/  8/ 12 1005.1
MISSION/ARANSAS  0400   76                 1005.0
PORT O`CONNOR    0430   75     140/ 13/ 18 1003.6
PORT ARANSAS     0400   75 77  120/ 11/ 12 1004.4
MALAQUITE BEACH  0430   76 78  100/ 11/ 12 1004.2
BAFFIN BAY       0430   76 78   70/ 10/ 13 1003.7
PORT ISABEL      0430   78 81  150/  9/ 12 1003.8
$$




USA.gov is the U.S. government's official web portal to all federal, state and local government web resources and services.